Location: *
(13.2257°S, 48.7193°W)
Time: 13:33:29
(UTC+00:00)

Cosmos 1908 Rocket - Pass Details

Date: 13 February 2026
Orbit: 600 x 624 km, 82.5° (Epoch: 11 March)

Event Time Altitude Azimuth Distance (km) Brightness Sun altitude
Rises 08:23:58 0° 196° (SSW) 2,859 7.0 -12.3°
Reaches altitude 10° 08:26:16 10° 203° (SSW) 1,951 6.1 -11.8°
Maximum altitude 08:30:18 40° 272° (W) 890 3.9 -10.8°
Drops below altitude 10° 08:34:20 10° 342° (NNW) 1,940 5.8 -9.9°
Sets 08:36:38 0° 350° (N) 2,841 6.7 -9.3°
